Refine Search
Year Filed

2020 ×

Court

Texas Southern ×

Click on desired case number or refine your search to continue

Case TitleCourtCase NoChpDate FiledClosedDisposition
EMT Expedited Logistics, Inc.Texas Southern4:20-bk-329431106/04/2020
CEC Entertainment Holdings, LLC and Official Committee Of Unsecured CreditorsTexas Southern4:20-bk-331671106/25/2020
Parkway Place Limited Partnership Jointly Administered under 20-35226.Texas Southern4:20-bk-353951111/02/2020
Stage Stores, Inc.Texas Southern4:20-bk-325641105/10/2020
CBL/Monroeville, L.P. Jointly Administered under 20-35226.Texas Southern4:20-bk-352991111/02/2020
Victerra Energy Holding Co., LLC and Official Committee of Unsecured CreditorsTexas Southern4:20-bk-324871105/06/2020
Quintela Group, LLCTexas Southern4:20-bk-325771105/11/2020
Buzzards Bench, LLC and Buzzards Bench Holdings, LLCTexas Southern4:20-bk-323911104/30/2020
Brittmoore SS Investment, LLCTexas Southern4:20-bk-329011106/01/2020
Fall Creek Plaza, III, LP Jointly administered under 20-32989.Texas Southern4:20-bk-329911106/09/2020
Sheridan Holding Company I, LLC and Sheridan Production Partners I-A, L.P.Texas Southern4:20-bk-318841103/23/2020
Pearl Resources Operating Co. LLCTexas Southern4:20-bk-315861103/03/2020
H2MinusO, LLC Jointly administered under 19-31758.Texas Southern4:20-bk-317591103/15/2020
Neiman Marcus Group LTD LLC and Mariposa Intermediate Holdings LLCTexas Southern4:20-bk-325191105/07/2020
Sheridan Production Partners I-A, L.P. Jointly Administered under 20-31884.Texas Southern4:20-bk-318861103/23/2020
Brayton Resources, LPTexas Southern4:20-bk-30626701/24/2020
High Mesa, Inc. and Virginia Oil and Gas, LLCTexas Southern4:20-bk-30602701/24/2020
Echo Energy Partners I, LLCTexas Southern4:20-bk-319201103/24/2020
High Mesa Holdings GP, LLCTexas Southern4:20-bk-30607701/24/2020
FBB Anadarko, LLCTexas Southern4:20-bk-30629701/24/2020
BuffBurger #1, L.P.Texas Southern4:20-bk-306891101/28/2020
Alta Mesa GP, LLCTexas Southern4:20-bk-30622701/24/2020
LEADS Resources, LLCTexas Southern4:20-bk-30632701/24/2020
Aransas Resources, LPTexas Southern4:20-bk-30623701/24/2020
Buckeye Production Company, LPTexas Southern4:20-bk-30628701/24/2020
Pearl Resources LLC and Pearl Resources Operating Co. LLCTexas Southern4:20-bk-315851103/03/2020
Brayton Resources II, LPTexas Southern4:20-bk-30627701/24/2020
Specialty Retailers, Inc. Jointly Administered under 20-32564.Texas Southern4:20-bk-325651105/10/2020
Whiting Petroleum Corporation and Whiting US Holding CompanyTexas Southern4:20-bk-320211104/01/2020
The Meridian Resource, LLCTexas Southern4:20-bk-30640701/24/2020
Nueces Resources, LPTexas Southern4:20-bk-30637701/24/2020
KMCO, LLCTexas Southern6:20-bk-60028705/08/2020
Brayton Management GP II, LLCTexas Southern4:20-bk-30625701/24/2020
ARI Development, LLCTexas Southern4:20-bk-30624701/24/2020
Alta Mesa Drilling, LLCTexas Southern4:20-bk-30620701/24/2020
Sundance Acquisition, LLCTexas Southern4:20-bk-30638701/24/2020
Louisiana Exploration & Acquisition, LPTexas Southern4:20-bk-30634701/24/2020
The Meridian Production, LLCTexas Southern4:20-bk-30614701/24/2020
Q'MAX America, Inc. and Anchor Drilling Fluids USA, LLCTexas Southern6:20-bk-60030705/24/2020
Chesapeake Exploration, L.L.C.Texas Southern4:20-bk-332391106/28/2020
The Neiman Marcus Group LLCTexas Southern4:20-bk-325171105/07/202003/30/2021Discharge Not Applicable 03/30/2021
Tailored Brands, Inc. and TB UK Holding Limited Jointly Administered under 20-33916.Texas Southern4:20-bk-339001108/02/202009/22/2021Discharge Not Applicable
Q'Max Solutions Inc.Texas Southern4:20-bk-347911509/30/2020
Bouchard Transportation Co., Inc. and A.R.M. Marine SupplyTexas Southern4:20-bk-346821109/28/202009/28/2021Discharge Not Applicable 09/28/2021
CARBO Ceramics, Inc. and Official Committee of Unsecured Creditors of CARBO Jointly Administered under 20-31975.Texas Southern4:20-bk-319731103/29/202009/20/2021
Evangel International Foods, Inc.Texas Southern4:20-bk-314801103/02/202004/21/2021Discharge Not Applicable
Lummus Technology LLC Jointly Administered under 20-30336.Texas Southern4:20-bk-303551101/21/2020
Forge Drilling Tools, LLCTexas Southern4:20-bk-34294708/26/2020
Seadrill Operating GP LLC Jointly Administered under 20-35740.Texas Southern4:20-bk-357601112/01/2020
Mule Sky LLC and Official Committee Of Unsecured CreditorsTexas Southern4:20-bk-355611111/13/2020